sat.trackr.live / text

‹ back to catalog

STARLINK-32513

NORAD 61964 · 2024-210F

PAYLOAD ACTIVE UNKNOWN

§ Identity

Operator
Country
US
Launch date
2024-11-14
Launch site
AFETR
Launch vehicle
Mass (kg)
RCS (m²)

Purposes: comms

External: N2YO · Heavens-Above · Gunter

§ Orbital elements

Epoch: 2026-05-24T21:43:32.549376Z

Period
94.27 min
Inclination
42.9983°
Eccentricity
0.0000197
Mean motion
15.27593428 rev/d
Perigee alt
482.9 km
Apogee alt
483.1 km
Semi-major
6,861.1 km
B*
4.6500e-4
RAAN
94.9088°
Arg perigee
109.8469°
Mean anomaly
250.2404°
Rev number
8,673

§ Raw data

STARLINK-325131 61964U 24210F   26144.90523784  .00012561  00000+0  46500-3 0  99922 61964  42.9983  94.9088 0000197 109.8469 250.2404 15.27593428 86732

JSON: /api/v1/satellites/61964 · /tle

For live sub-satellite position, see the globe view (requires WebGL).

§ Visibility from observer

Set your observer location to see the next 7 days of passes ≥ 10°. The values pass through the URL so the page stays shareable.

No JS? Fill the form by hand. The geolocation button needs JavaScript.